Time,TemperatureF,DewpointF,PressureIn,WindDirection,WindDirectionDegrees,WindSpeedMPH,WindSpeedGustMPH,Humidity,HourlyPrecipIn,Conditions,Clouds,dailyrainin,SoftwareType,DateUTC
2013-03-23 00:02:00,42.0,36.0,29.83,NNW,332,1.0,-999.0,79,-99.99,,,-99.99,,2013-03-23 05:02:00,
2013-03-23 00:12:00,42.0,36.0,29.83,NNW,332,1.0,-999.0,79,-99.99,,,-99.99,,2013-03-23 05:12:00,
2013-03-23 00:22:00,42.0,36.0,29.82,North,4,1.0,-999.0,80,-99.99,,,-99.99,,2013-03-23 05:22:00,
2013-03-23 00:32:00,42.0,36.0,29.83,ENE,62,1.0,-999.0,80,-99.99,,,-99.99,,2013-03-23 05:32:00,
2013-03-23 00:42:00,42.0,36.0,29.83,ENE,62,1.0,-999.0,80,-99.99,,,-99.99,,2013-03-23 05:42:00,
2013-03-23 00:52:00,42.0,36.0,29.82,North,353,1.0,-999.0,80,-99.99,,,-99.99,,2013-03-23 05:52:00,
2013-03-23 01:02:00,42.0,36.0,29.82,North,360,1.0,-999.0,80,-99.99,,,-99.99,,2013-03-23 06:02:00,
2013-03-23 01:12:00,42.0,36.0,29.82,North,360,1.0,-999.0,80,-99.99,,,-99.99,,2013-03-23 06:12:00,
2013-03-23 01:22:00,41.0,36.0,29.81,North,360,2.0,-999.0,81,-99.99,,,-99.99,,2013-03-23 06:22:00,
2013-03-23 01:32:00,41.0,36.0,29.82,North,360,2.0,-999.0,81,-99.99,,,-99.99,,2013-03-23 06:32:00,
2013-03-23 01:42:00,41.0,36.0,29.82,North,360,2.0,-999.0,81,-99.99,,,-99.99,,2013-03-23 06:42:00,
2013-03-23 01:52:00,41.0,36.0,29.81,NE,45,1.0,-999.0,81,-99.99,,,-99.99,,2013-03-23 06:52:00,
2013-03-23 02:02:00,41.0,36.0,29.80,NE,41,1.0,-999.0,82,-99.99,,,-99.99,,2013-03-23 07:02:00,
2013-03-23 02:12:00,41.0,36.0,29.80,NE,41,1.0,-999.0,82,-99.99,,,-99.99,,2013-03-23 07:12:00,
2013-03-23 02:22:00,41.0,36.0,29.80,North,7,2.0,-999.0,82,-99.99,,,-99.99,,2013-03-23 07:22:00,
2013-03-23 02:32:00,41.0,36.0,29.80,North,6,2.0,-999.0,82,-99.99,,,-99.99,,2013-03-23 07:32:00,
2013-03-23 02:42:00,41.0,36.0,29.80,North,6,2.0,-999.0,82,-99.99,,,-99.99,,2013-03-23 07:42:00,
2013-03-23 02:52:00,40.0,35.0,29.79,NE,54,2.0,-999.0,82,-99.99,,,-99.99,,2013-03-23 07:52:00,
2013-03-23 03:02:00,40.0,35.0,29.78,NE,41,2.0,-999.0,83,-99.99,,,-99.99,,2013-03-23 08:02:00,
2013-03-23 03:12:00,40.0,35.0,29.78,NE,41,2.0,-999.0,83,-99.99,,,-99.99,,2013-03-23 08:12:00,
2013-03-23 03:22:00,40.0,35.0,29.78,North,6,2.0,-999.0,83,-99.99,,,-99.99,,2013-03-23 08:22:00,
2013-03-23 03:32:00,40.0,35.0,29.78,NNE,31,1.0,-999.0,83,-99.99,,,-99.99,,2013-03-23 08:32:00,
2013-03-23 03:42:00,40.0,35.0,29.78,NNE,31,1.0,-999.0,83,-99.99,,,-99.99,,2013-03-23 08:42:00,
2013-03-23 03:52:00,40.0,35.0,29.78,NNE,17,2.0,-999.0,83,-99.99,,,-99.99,,2013-03-23 08:52:00,
2013-03-23 04:02:00,40.0,36.0,29.78,NNE,30,1.0,-999.0,84,-99.99,,,-99.99,,2013-03-23 09:02:00,
2013-03-23 04:12:00,40.0,36.0,29.78,NNE,30,1.0,-999.0,84,-99.99,,,-99.99,,2013-03-23 09:12:00,
2013-03-23 04:22:00,40.0,36.0,29.77,NNE,17,1.0,-999.0,84,-99.99,,,-99.99,,2013-03-23 09:22:00,
2013-03-23 04:33:00,40.0,36.0,29.77,NE,51,1.0,-999.0,84,-99.99,,,-99.99,,2013-03-23 09:33:00,
2013-03-23 04:42:00,40.0,36.0,29.77,NE,51,1.0,-999.0,84,-99.99,,,-99.99,,2013-03-23 09:42:00,
2013-03-23 04:53:00,40.0,35.0,29.78,ENE,71,1.0,-999.0,83,-99.99,,,-99.99,,2013-03-23 09:53:00,
2013-03-23 05:03:00,39.0,34.0,29.77,NNE,28,2.0,-999.0,83,-99.99,,,-99.99,,2013-03-23 10:03:00,
2013-03-23 05:12:00,39.0,34.0,29.77,NNE,28,2.0,-999.0,83,-99.99,,,-99.99,,2013-03-23 10:12:00,
2013-03-23 05:23:00,39.0,34.0,29.77,NNE,32,2.0,-999.0,83,-99.99,,,-99.99,,2013-03-23 10:23:00,
2013-03-23 05:33:00,39.0,34.0,29.77,NNE,27,2.0,-999.0,83,-99.99,,,-99.99,,2013-03-23 10:33:00,
2013-03-23 05:42:00,39.0,34.0,29.77,NNE,27,2.0,-999.0,83,-99.99,,,-99.99,,2013-03-23 10:42:00,
2013-03-23 05:52:00,39.0,35.0,29.76,NE,34,1.0,-999.0,84,-99.99,,,-99.99,,2013-03-23 10:52:00,
2013-03-23 06:03:00,39.0,35.0,29.76,NNE,18,2.0,-999.0,84,-99.99,,,-99.99,,2013-03-23 11:03:00,
2013-03-23 06:12:00,39.0,35.0,29.76,NNE,18,2.0,-999.0,84,-99.99,,,-99.99,,2013-03-23 11:12:00,
2013-03-23 06:22:00,39.0,35.0,29.78,NE,47,0.0,-999.0,85,-99.99,,,-99.99,,2013-03-23 11:22:00,
2013-03-23 06:32:00,39.0,35.0,29.76,NNE,32,2.0,-999.0,87,-99.99,,,-99.99,,2013-03-23 11:32:00,
2013-03-23 06:42:00,38.0,35.0,29.78,NE,38,1.0,-999.0,89,-99.99,,,-99.99,,2013-03-23 11:42:00,
2013-03-23 06:52:00,38.0,35.0,29.78,NE,38,1.0,-999.0,89,-99.99,,,-99.99,,2013-03-23 11:52:00,
2013-03-23 07:02:00,38.0,36.0,29.78,NE,34,1.0,-999.0,91,-99.99,,,-99.99,,2013-03-23 12:02:00,
2013-03-23 07:12:00,38.0,36.0,29.78,NE,34,1.0,-999.0,91,-99.99,,,-99.99,,2013-03-23 12:12:00,
2013-03-23 07:22:00,38.0,36.0,29.79,North,353,0.0,-999.0,92,-99.99,,,-99.99,,2013-03-23 12:22:00,
2013-03-23 07:33:00,38.0,36.0,29.78,NE,37,1.0,-999.0,92,-99.99,,,-99.99,,2013-03-23 12:33:00,
2013-03-23 07:42:00,38.0,36.0,29.78,NE,37,1.0,-999.0,92,-99.99,,,-99.99,,2013-03-23 12:42:00,
2013-03-23 07:53:00,38.0,36.0,29.80,ENE,61,1.0,-999.0,93,-99.99,,,-99.99,,2013-03-23 12:53:00,
2013-03-23 08:02:00,38.0,36.0,29.79,NNE,32,0.0,-999.0,93,-99.99,,,-99.99,,2013-03-23 13:02:00,
2013-03-23 08:12:00,38.0,36.0,29.79,NNE,32,0.0,-999.0,93,-99.99,,,-99.99,,2013-03-23 13:12:00,
2013-03-23 08:22:00,38.0,36.0,29.78,North,360,1.0,-999.0,93,-99.99,,,-99.99,,2013-03-23 13:22:00,
2013-03-23 08:32:00,38.0,36.0,29.78,NNE,31,1.0,-999.0,94,-99.99,,,-99.99,,2013-03-23 13:32:00,
2013-03-23 08:42:00,38.0,36.0,29.78,NNE,31,1.0,-999.0,94,-99.99,,,-99.99,,2013-03-23 13:42:00,
2013-03-23 08:53:00,38.0,36.0,29.79,NNE,31,2.0,-999.0,94,-99.99,,,-99.99,,2013-03-23 13:53:00,
2013-03-23 09:03:00,38.0,36.0,29.79,NE,34,1.0,-999.0,94,-99.99,,,-99.99,,2013-03-23 14:03:00,
2013-03-23 09:12:00,38.0,36.0,29.79,NE,34,1.0,-999.0,94,-99.99,,,-99.99,,2013-03-23 14:12:00,
2013-03-23 09:22:00,38.0,36.0,29.79,NNW,347,1.0,-999.0,94,-99.99,,,-99.99,,2013-03-23 14:22:00,
2013-03-23 09:32:00,38.0,36.0,29.80,North,360,1.0,-999.0,94,-99.99,,,-99.99,,2013-03-23 14:32:00,
2013-03-23 09:42:00,38.0,36.0,29.80,North,360,1.0,-999.0,94,-99.99,,,-99.99,,2013-03-23 14:42:00,
2013-03-23 09:52:00,38.0,36.0,29.78,NNE,25,1.0,-999.0,94,-99.99,,,-99.99,,2013-03-23 14:52:00,
2013-03-23 10:03:00,38.0,36.0,29.78,NE,49,1.0,-999.0,94,-99.99,,,-99.99,,2013-03-23 15:03:00,
2013-03-23 10:12:00,38.0,36.0,29.78,NE,49,1.0,-999.0,94,-99.99,,,-99.99,,2013-03-23 15:12:00,
2013-03-23 10:22:00,39.0,37.0,29.79,NNE,28,1.0,-999.0,94,-99.99,,,-99.99,,2013-03-23 15:22:00,
2013-03-23 10:33:00,39.0,37.0,29.78,NE,49,1.0,-999.0,94,-99.99,,,-99.99,,2013-03-23 15:33:00,
2013-03-23 10:43:00,39.0,37.0,29.78,NE,49,1.0,-999.0,94,-99.99,,,-99.99,,2013-03-23 15:43:00,
2013-03-23 10:53:00,39.0,37.0,29.78,NE,52,2.0,-999.0,94,-99.99,,,-99.99,,2013-03-23 15:53:00,
2013-03-23 11:03:00,39.0,37.0,29.76,NE,47,2.0,-999.0,94,-99.99,,,-99.99,,2013-03-23 16:03:00,
2013-03-23 11:12:00,39.0,37.0,29.76,NE,47,2.0,-999.0,94,-99.99,,,-99.99,,2013-03-23 16:12:00,
2013-03-23 11:23:00,39.0,37.0,29.76,North,7,2.0,-999.0,94,-99.99,,,-99.99,,2013-03-23 16:23:00,
2013-03-23 11:32:00,39.0,37.0,29.78,NNE,18,2.0,-999.0,94,-99.99,,,-99.99,,2013-03-23 16:32:00,
2013-03-23 11:43:00,39.0,37.0,29.78,NNE,18,2.0,-999.0,94,-99.99,,,-99.99,,2013-03-23 16:43:00,
2013-03-23 11:53:00,39.0,37.0,29.78,NE,44,1.0,-999.0,94,-99.99,,,-99.99,,2013-03-23 16:53:00,
2013-03-23 12:02:00,39.0,37.0,29.80,North,360,0.0,-999.0,94,-99.99,,,-99.99,,2013-03-23 17:02:00,
2013-03-23 12:12:00,40.0,39.0,29.78,North,360,1.0,-999.0,95,-99.99,,,-99.99,,2013-03-23 17:12:00,
2013-03-23 12:22:00,40.0,39.0,29.78,North,360,1.0,-999.0,95,-99.99,,,-99.99,,2013-03-23 17:22:00,
2013-03-23 12:32:00,40.0,39.0,29.78,North,354,1.0,-999.0,95,-99.99,,,-99.99,,2013-03-23 17:32:00,
2013-03-23 12:42:00,40.0,39.0,29.78,North,354,1.0,-999.0,95,-99.99,,,-99.99,,2013-03-23 17:42:00,
2013-03-23 12:53:00,40.0,39.0,29.77,NE,45,1.0,-999.0,95,-99.99,,,-99.99,,2013-03-23 17:53:00,
2013-03-23 13:03:00,40.0,39.0,29.76,ENE,68,1.0,-999.0,95,-99.99,,,-99.99,,2013-03-23 18:03:00,
2013-03-23 13:12:00,40.0,39.0,29.76,ENE,68,1.0,-999.0,95,-99.99,,,-99.99,,2013-03-23 18:12:00,
2013-03-23 13:22:00,40.0,38.0,29.74,ENE,66,2.0,-999.0,94,-99.99,,,-99.99,,2013-03-23 18:22:00,
2013-03-23 13:32:00,40.0,38.0,29.75,NE,48,2.0,-999.0,94,-99.99,,,-99.99,,2013-03-23 18:32:00,
2013-03-23 13:42:00,40.0,38.0,29.75,NE,48,2.0,-999.0,94,-99.99,,,-99.99,,2013-03-23 18:42:00,
2013-03-23 13:53:00,41.0,39.0,29.75,NE,54,0.0,-999.0,94,-99.99,,,-99.99,,2013-03-23 18:53:00,
2013-03-23 14:02:00,41.0,39.0,29.74,NE,54,0.0,-999.0,94,-99.99,,,-99.99,,2013-03-23 19:02:00,
2013-03-23 14:12:00,41.0,39.0,29.74,NE,54,0.0,-999.0,94,-99.99,,,-99.99,,2013-03-23 19:12:00,
2013-03-23 14:22:00,41.0,40.0,29.72,NE,51,0.0,-999.0,95,-99.99,,,-99.99,,2013-03-23 19:22:00,
2013-03-23 14:32:00,41.0,39.0,29.71,NNE,14,0.0,-999.0,94,-99.99,,,-99.99,,2013-03-23 19:32:00,
2013-03-23 14:42:00,41.0,39.0,29.71,NNE,14,0.0,-999.0,94,-99.99,,,-99.99,,2013-03-23 19:42:00,
2013-03-23 14:53:00,41.0,39.0,29.71,North,360,0.0,-999.0,94,-99.99,,,-99.99,,2013-03-23 19:53:00,
2013-03-23 15:02:00,41.0,39.0,29.71,NNW,340,0.0,-999.0,94,-99.99,,,-99.99,,2013-03-23 20:02:00,
2013-03-23 15:12:00,41.0,39.0,29.71,NNW,340,0.0,-999.0,94,-99.99,,,-99.99,,2013-03-23 20:12:00,
2013-03-23 15:22:00,41.0,39.0,29.69,NNW,346,1.0,-999.0,93,-99.99,,,-99.99,,2013-03-23 20:22:00,
2013-03-23 15:32:00,41.0,39.0,29.69,ENE,78,0.0,-999.0,93,-99.99,,,-99.99,,2013-03-23 20:32:00,
2013-03-23 15:42:00,41.0,39.0,29.69,ENE,78,0.0,-999.0,93,-99.99,,,-99.99,,2013-03-23 20:42:00,
2013-03-23 15:53:00,41.0,39.0,29.68,NNE,13,1.0,-999.0,93,-99.99,,,-99.99,,2013-03-23 20:53:00,
2013-03-23 16:02:00,42.0,40.0,29.68,NE,49,1.0,-999.0,93,-99.99,,,-99.99,,2013-03-23 21:02:00,
2013-03-23 16:12:00,42.0,40.0,29.68,NE,49,1.0,-999.0,93,-99.99,,,-99.99,,2013-03-23 21:12:00,
2013-03-23 16:22:00,42.0,40.0,29.66,NNE,32,1.0,-999.0,93,-99.99,,,-99.99,,2013-03-23 21:22:00,
2013-03-23 16:32:00,42.0,40.0,29.66,NE,38,1.0,-999.0,93,-99.99,,,-99.99,,2013-03-23 21:32:00,
2013-03-23 16:43:00,42.0,40.0,29.66,NE,38,1.0,-999.0,93,-99.99,,,-99.99,,2013-03-23 21:43:00,
2013-03-23 16:54:00,42.0,40.0,29.65,North,8,1.0,-999.0,94,-99.99,,,-99.99,,2013-03-23 21:54:00,
2013-03-23 17:02:00,42.0,40.0,29.65,NE,45,1.0,-999.0,94,-99.99,,,-99.99,,2013-03-23 22:02:00,
2013-03-23 17:12:00,42.0,40.0,29.65,NE,45,1.0,-999.0,94,-99.99,,,-99.99,,2013-03-23 22:12:00,
2013-03-23 17:23:00,42.0,40.0,29.64,North,354,1.0,-999.0,94,-99.99,,,-99.99,,2013-03-23 22:23:00,
2013-03-23 17:33:00,42.0,40.0,29.64,North,349,1.0,-999.0,94,-99.99,,,-99.99,,2013-03-23 22:33:00,
2013-03-23 17:42:00,42.0,40.0,29.64,North,349,1.0,-999.0,94,-99.99,,,-99.99,,2013-03-23 22:42:00,
2013-03-23 17:53:00,42.0,41.0,29.64,North,350,1.0,-999.0,95,-99.99,,,-99.99,,2013-03-23 22:53:00,
2013-03-23 18:02:00,42.0,41.0,29.64,NW,312,1.0,-999.0,95,-99.99,,,-99.99,,2013-03-23 23:02:00,
2013-03-23 18:12:00,42.0,41.0,29.64,NW,312,1.0,-999.0,95,-99.99,,,-99.99,,2013-03-23 23:12:00,
2013-03-23 18:22:00,42.0,41.0,29.64,North,352,0.0,-999.0,95,-99.99,,,-99.99,,2013-03-23 23:22:00,
2013-03-23 18:32:00,42.0,41.0,29.64,North,359,0.0,-999.0,95,-99.99,,,-99.99,,2013-03-23 23:32:00,
2013-03-23 18:42:00,42.0,41.0,29.64,North,359,0.0,-999.0,95,-99.99,,,-99.99,,2013-03-23 23:42:00,
2013-03-23 18:52:00,42.0,41.0,29.65,NW,304,1.0,-999.0,95,-99.99,,,-99.99,,2013-03-23 23:52:00,
2013-03-23 19:02:00,42.0,41.0,29.66,WNW,284,1.0,-999.0,95,-99.99,,,-99.99,,2013-03-24 00:02:00,
2013-03-23 19:12:00,42.0,41.0,29.66,WNW,284,1.0,-999.0,95,-99.99,,,-99.99,,2013-03-24 00:12:00,
2013-03-23 19:22:00,42.0,41.0,29.68,West,277,1.0,-999.0,95,-99.99,,,-99.99,,2013-03-24 00:22:00,
2013-03-23 19:32:00,41.0,40.0,29.67,WNW,285,2.0,-999.0,95,-99.99,,,-99.99,,2013-03-24 00:32:00,
2013-03-23 19:42:00,41.0,40.0,29.67,WNW,285,2.0,-999.0,95,-99.99,,,-99.99,,2013-03-24 00:42:00,
2013-03-23 19:52:00,41.0,40.0,29.69,NW,319,1.0,-999.0,95,-99.99,,,-99.99,,2013-03-24 00:52:00,
2013-03-23 20:02:00,41.0,40.0,29.69,North,354,1.0,-999.0,95,-99.99,,,-99.99,,2013-03-24 01:02:00,
2013-03-23 20:12:00,41.0,40.0,29.69,North,354,1.0,-999.0,95,-99.99,,,-99.99,,2013-03-24 01:12:00,
2013-03-23 20:22:00,41.0,40.0,29.66,North,360,1.0,-999.0,95,-99.99,,,-99.99,,2013-03-24 01:22:00,
2013-03-23 20:32:00,41.0,40.0,29.66,North,356,0.0,-999.0,95,-99.99,,,-99.99,,2013-03-24 01:32:00,
2013-03-23 20:42:00,41.0,40.0,29.66,North,356,0.0,-999.0,95,-99.99,,,-99.99,,2013-03-24 01:42:00,
2013-03-23 20:53:00,41.0,40.0,29.65,NNE,14,1.0,-999.0,95,-99.99,,,-99.99,,2013-03-24 01:53:00,
2013-03-23 21:02:00,41.0,40.0,29.65,North,360,1.0,-999.0,95,-99.99,,,-99.99,,2013-03-24 02:02:00,
2013-03-23 21:12:00,41.0,40.0,29.65,North,360,1.0,-999.0,95,-99.99,,,-99.99,,2013-03-24 02:12:00,
2013-03-23 21:22:00,41.0,40.0,29.65,North,11,1.0,-999.0,95,-99.99,,,-99.99,,2013-03-24 02:22:00,
2013-03-23 21:32:00,41.0,40.0,29.65,NNE,13,1.0,-999.0,95,-99.99,,,-99.99,,2013-03-24 02:32:00,
2013-03-23 21:42:00,41.0,40.0,29.65,NNE,13,1.0,-999.0,95,-99.99,,,-99.99,,2013-03-24 02:42:00,
2013-03-23 21:52:00,41.0,40.0,29.64,NE,34,1.0,-999.0,95,-99.99,,,-99.99,,2013-03-24 02:52:00,
2013-03-23 22:02:00,41.0,40.0,29.64,NE,35,1.0,-999.0,95,-99.99,,,-99.99,,2013-03-24 03:02:00,
2013-03-23 22:12:00,41.0,40.0,29.64,NE,35,1.0,-999.0,95,-99.99,,,-99.99,,2013-03-24 03:12:00,
2013-03-23 22:22:00,41.0,39.0,29.68,WNW,302,0.0,-999.0,94,-99.99,,,-99.99,,2013-03-24 03:22:00,
2013-03-23 22:33:00,42.0,40.0,29.68,WNW,295,1.0,-999.0,94,-99.99,,,-99.99,,2013-03-24 03:33:00,
2013-03-23 22:42:00,42.0,40.0,29.68,WNW,295,1.0,-999.0,94,-99.99,,,-99.99,,2013-03-24 03:42:00,
2013-03-23 22:53:00,42.0,40.0,29.69,WNW,291,1.0,-999.0,94,-99.99,,,-99.99,,2013-03-24 03:53:00,
2013-03-23 23:02:00,41.0,39.0,29.69,WNW,284,2.0,-999.0,94,-99.99,,,-99.99,,2013-03-24 04:02:00,
2013-03-23 23:12:00,41.0,39.0,29.69,WNW,284,2.0,-999.0,94,-99.99,,,-99.99,,2013-03-24 04:12:00,
2013-03-23 23:22:00,39.0,37.0,29.72,WNW,294,4.0,-999.0,94,-99.99,,,-99.99,,2013-03-24 04:22:00,
2013-03-23 23:32:00,39.0,37.0,29.72,NW,311,2.0,-999.0,94,-99.99,,,-99.99,,2013-03-24 04:32:00,
2013-03-23 23:42:00,39.0,37.0,29.72,NW,311,2.0,-999.0,94,-99.99,,,-99.99,,2013-03-24 04:42:00,
2013-03-23 23:53:00,38.0,36.0,29.71,North,354,4.0,-999.0,94,-99.99,,,-99.99,,2013-03-24 04:53:00,